CT2IRK-11 Weather Reports


time (UTC)temp
C
wind
direction
speed
KPH
gust
KPH
rain 1hr
cm
rain 24hr
cm
rain mn
cm
humidity
%
barometer
mb
20181023100107 21 67 14.5 19.3 0.00 0.00 0.00 54 1017.4
20181023095833 21 50 12.9 19.3 0.00 0.00 0.00 55 1017.4
20181023095607 21 80 12.9 19.3 0.00 0.00 0.00 55 1017.4
20181023095334 21 112 11.3 19.3 0.00 0.00 0.00 56 1017.4
20181023095108 21 112 11.3 19.3 0.00 0.00 0.00 56 1017.3
20181023094833 21 68 11.3 19.3 0.00 0.00 0.00 56 1017.3
20181023094607 20 62 9.7 19.3 0.00 0.00 0.00 56 1017.3
20181023094332 20 34 8.0 19.3 0.00 0.00 0.00 56 1017.3
20181023094108 20 32 11.3 19.3 0.00 0.00 0.00 56 1017.3
20181023093834 20 48 8.0 19.3 0.00 0.00 0.00 56 1017.2
20181023093608 20 45 11.3 19.3 0.00 0.00 0.00 56 1017.2
20181023093332 20 68 14.5 19.3 0.00 0.00 0.00 56 1017.2
20181023093108 20 47 6.4 19.3 0.00 0.00 0.00 56 1017.2
20181023092832 20 76 16.1 19.3 0.00 0.00 0.00 56 1017.2
20181023092608 20 54 9.7 16.1 0.00 0.00 0.00 57 1017.1
20181023092334 20 43 6.4 16.1 0.00 0.00 0.00 57 1017.1
20181023092108 20 38 6.4 16.1 0.00 0.00 0.00 57 1017.1
20181023091833 20 49 11.3 16.1 0.00 0.00 0.00 57 1017.1
20181023091608 20 45 11.3 16.1 0.00 0.00 0.00 57 1017.1
20181023091332 20 45 6.4 16.1 0.00 0.00 0.00 58 1017.0
20181023091108 20 45 11.3 16.1 0.00 0.00 0.00 60 1017.0
20181023090832 19 55 4.8 16.1 0.00 0.00 0.00 62 1017.0
20181023090608 19 52 9.7 16.1 0.00 0.00 0.00 62 1017.0
20181023090333 18 42 6.4 16.1 0.00 0.00 0.00 65 1017.0
20181023090108 18 32 6.4 16.1 0.00 0.00 0.00 64 1017.0
20181023085832 18 21 6.4 11.3 0.00 0.00 0.00 67 1017.0
20181023085609 18 45 6.4 11.3 0.00 0.00 0.00 67 1017.0
20181023085331 18 33 6.4 11.3 0.00 0.00 0.00 68 1017.0
20181023085108 18 23 6.4 11.3 0.00 0.00 0.00 69 1017.0
20181023084832 18 68 8.0 11.3 0.00 0.00 0.00 69 1017.0
20181023084608 17 41 6.4 11.3 0.00 0.00 0.00 70 1017.0
20181023084332 17 25 6.4 11.3 0.00 0.00 0.00 70 1017.0
20181023084107 17 41 6.4 11.3 0.00 0.00 0.00 70 1017.0
20181023083832 17 41 8.0 11.3 0.00 0.00 0.00 72 1017.0
20181023083608 17 68 6.4 11.3 0.00 0.00 0.00 74 1017.0
20181023083332 16 22 6.4 11.3 0.00 0.00 0.00 74 1017.0
20181023083108 16 33 8.0 11.3 0.00 0.00 0.00 74 1017.0
20181023082832 16 22 6.4 11.3 0.00 0.00 0.00 75 1017.0
20181023082608 16 22 6.4 11.3 0.00 0.00 0.00 75 1016.8
20181023082332 15 44 6.4 11.3 0.00 0.00 0.00 75 1016.8
20181023082107 15 25 8.0 11.3 0.00 0.00 0.00 75 1016.8
20181023081833 15 21 8.0 11.3 0.00 0.00 0.00 75 1016.8
20181023081608 15 39 8.0 11.3 0.00 0.00 0.00 75 1016.8
20181023081332 15 9 6.4 11.3 0.00 0.00 0.00 76 1016.7
20181023081108 15 45 6.4 11.3 0.00 0.00 0.00 76 1016.7
20181023080831 15 45 6.4 11.3 0.00 0.00 0.00 76 1016.7
20181023080607 15 45 8.0 11.3 0.00 0.00 0.00 76 1016.7
20181023080333 15 47 9.7 11.3 0.00 0.00 0.00 77 1016.5
20181023080107 14 56 8.0 11.3 0.00 0.00 0.00 77 1016.5
20181023075833 14 54 9.7 11.3 0.00 0.00 0.00 78 1016.5
20181023075610 14 46 8.0 11.3 0.00 0.00 0.00 78 1016.5
20181023075331 14 45 8.0 11.3 0.00 0.00 0.00 78 1016.5
20181023075108 14 57 9.7 11.3 0.00 0.00 0.00 78 1016.5
20181023075003 14 32 8.0 9.7 0.00 0.00 0.00 78 1016.4
20181023074833 14 45 8.0 9.7 0.00 0.00 0.00 78 1016.4
20181023074607 14 32 8.0 9.7 0.00 0.00 0.00 78 1016.4
20181023074333 14 33 6.4 9.7 0.00 0.00 0.00 78 1016.4
20181023074107 14 67 8.0 9.7 0.00 0.00 0.00 78 1016.4
20181023073833 14 37 6.4 9.7 0.00 0.00 0.00 78 1016.2
20181023073606 14 41 4.8 9.7 0.00 0.00 0.00 78 1016.2
20181023073332 14 34 6.4 9.7 0.00 0.00 0.00 78 1016.2
20181023073107 14 25 6.4 9.7 0.00 0.00 0.00 78 1016.2
20181023072833 14 65 6.4 9.7 0.00 0.00 0.00 78 1016.2
20181023072607 14 35 6.4 9.7 0.00 0.00 0.00 77 1015.9
20181023072332 14 45 4.8 9.7 0.00 0.00 0.00 77 1015.9
20181023072107 14 45 4.8 9.7 0.00 0.00 0.00 77 1015.9
20181023071831 14 33 6.4 9.7 0.00 0.00 0.00 77 1015.9
20181023071607 14 58 6.4 9.7 0.00 0.00 0.00 77 1015.9
20181023071333 14 56 6.4 9.7 0.00 0.00 0.00 77 1015.9
20181023071108 14 65 6.4 9.7 0.00 0.00 0.00 78 1015.9
20181023070831 14 59 8.0 9.7 0.00 0.00 0.00 78 1015.9
20181023070607 14 62 8.0 9.7 0.00 0.00 0.00 78 1015.9
20181023070331 14 45 6.4 9.7 0.00 0.00 0.00 78 1015.8
20181023070108 14 45 6.4 9.7 0.00 0.00 0.00 78 1015.8
20181023065833 14 68 6.4 9.7 0.00 0.00 0.00 78 1015.8
20181023065607 14 80 6.4 9.7 0.00 0.00 0.00 78 1015.8
20181023065332 14 46 4.8 9.7 0.00 0.00 0.00 79 1015.8
20181023065106 14 40 6.4 9.7 0.00 0.00 0.00 79 1015.6
20181023064833 14 45 6.4 9.7 0.00 0.00 0.00 79 1015.6
20181023064607 14 59 6.4 9.7 0.00 0.00 0.00 79 1015.6
20181023064333 14 64 6.4 9.7 0.00 0.00 0.00 79 1015.6
20181023064250 14 45 6.4 9.7 0.00 0.00 0.00 79 1015.6
20181023064107 14 45 6.4 9.7 0.00 0.00 0.00 79 1015.6
20181023063840 14 45 8.0 9.7 0.00 0.00 0.00 79 1015.6
20181023063832 14 47 6.4 9.7 0.00 0.00 0.00 79 1015.6
20181023063607 14 45 8.0 9.7 0.00 0.00 0.00 79 1015.6
20181023063331 14 45 8.0 9.7 0.00 0.00 0.00 79 1015.6
20181023063107 14 64 8.0 9.7 0.00 0.00 0.00 79 1015.6
20181023062833 14 57 8.0 9.7 0.00 0.00 0.00 79 1015.6
20181023062608 14 33 9.7 9.7 0.00 0.00 0.00 79 1015.5
20181023062331 14 46 9.7 9.7 0.00 0.00 0.00 79 1015.5
20181023062107 14 64 8.0 9.7 0.00 0.00 0.00 79 1015.5
20181023061831 14 47 8.0 9.7 0.00 0.00 0.00 79 1015.5
20181023061607 14 54 8.0 9.7 0.00 0.00 0.00 79 1015.5
20181023061333 14 31 6.4 9.7 0.00 0.00 0.00 79 1015.5
20181023061107 14 67 8.0 9.7 0.00 0.00 0.00 79 1015.5
20181023060832 14 53 6.4 9.7 0.00 0.00 0.00 79 1015.5
20181023060606 14 45 6.4 9.7 0.00 0.00 0.00 79 1015.5
20181023060332 14 45 6.4 9.7 0.00 0.00 0.00 80 1015.4
20181023060107 14 45 6.4 9.7 0.00 0.00 0.00 80 1015.4
20181023055833 14 45 6.4 9.7 0.00 0.00 0.00 80 1015.4
20181023055608 14 68 8.0 9.7 0.00 0.00 0.00 80 1015.4
20181023055332 14 38 8.0 9.7 0.00 0.00 0.00 80 1015.4
20181023055107 14 49 8.0 9.7 0.00 0.00 0.00 80 1015.3
20181023054831 14 45 6.4 9.7 0.00 0.00 0.00 81 1015.3
20181023054607 14 25 6.4 9.7 0.00 0.00 0.00 81 1015.3
20181023054333 14 45 6.4 9.7 0.00 0.00 0.00 82 1015.3
20181023054108 14 45 6.4 9.7 0.00 0.00 0.00 82 1015.3
20181023053831 14 44 6.4 9.7 0.00 0.00 0.00 82 1015.2
20181023053607 14 79 6.4 9.7 0.00 0.00 0.00 82 1015.2
20181023053331 14 58 6.4 9.7 0.00 0.00 0.00 82 1015.2
20181023053106 14 58 6.4 9.7 0.00 0.00 0.00 82 1015.2
20181023052832 14 47 6.4 9.7 0.00 0.00 0.00 82 1015.2
20181023052608 14 49 6.4 9.7 0.00 0.00 0.00 82 1015.1
20181023052332 14 41 6.4 9.7 0.00 0.00 0.00 82 1015.1
20181023052107 14 45 6.4 9.7 0.00 0.00 0.00 82 1015.1
20181023051831 14 45 6.4 9.7 0.00 0.00 0.00 82 1015.1
20181023051606 14 45 6.4 9.7 0.00 0.00 0.00 82 1015.1
20181023051332 14 59 6.4 9.7 0.00 0.00 0.00 82 1015.0
20181023051108 14 59 8.0 9.7 0.00 0.00 0.00 82 1015.0
20181023050831 14 22 6.4 9.7 0.00 0.00 0.00 82 1015.0
20181023050607 14 45 8.0 9.7 0.00 0.00 0.00 82 1015.0
20181023050331 14 22 6.4 9.7 0.00 0.00 0.00 82 1014.9
20181023050106 14 45 4.8 9.7 0.00 0.00 0.00 82 1014.8
20181023045832 14 45 4.8 9.7 0.00 0.00 0.00 82 1014.8
20181023045608 14 45 6.4 9.7 0.00 0.00 0.00 82 1014.8
20181023045331 14 34 6.4 9.7 0.00 0.00 0.00 82 1014.8
20181023045106 14 56 6.4 9.7 0.00 0.00 0.00 83 1015.0
20181023044832 14 32 8.0 9.7 0.00 0.00 0.00 83 1015.0
20181023044606 14 27 6.4 9.7 0.00 0.00 0.00 83 1015.0
20181023044332 14 22 8.0 9.7 0.00 0.00 0.00 83 1015.0
20181023044106 14 36 6.4 8.0 0.00 0.00 0.00 83 1015.0
20181023043832 14 27 6.4 8.0 0.00 0.00 0.00 83 1014.6
20181023043606 14 22 6.4 8.0 0.00 0.00 0.00 83 1014.6
20181023043332 14 30 4.8 8.0 0.00 0.00 0.00 83 1014.6
20181023043106 14 22 4.8 8.0 0.00 0.00 0.00 83 1014.6
20181023042832 14 35 4.8 8.0 0.00 0.00 0.00 84 1014.6
20181023042607 14 24 4.8 8.0 0.00 0.00 0.00 84 1014.6
20181023042331 14 45 4.8 8.0 0.00 0.00 0.00 84 1014.6
20181023042107 14 22 3.2 8.0 0.00 0.00 0.00 84 1014.6
20181023041831 14 27 4.8 8.0 0.00 0.00 0.00 84 1014.6
20181023041606 14 36 4.8 8.0 0.00 0.00 0.00 84 1014.6
20181023041331 14 4 3.2 8.0 0.00 0.00 0.00 84 1014.5
20181023041105 14 22 3.2 8.0 0.00 0.00 0.00 85 1014.5
20181023040831 14 37 3.2 8.0 0.00 0.00 0.00 85 1014.5
20181023040607 14 22 4.8 8.0 0.00 0.00 0.00 85 1014.5
20181023040331 14 45 4.8 8.0 0.00 0.00 0.00 85 1014.4
20181023040106 14 45 4.8 8.0 0.00 0.00 0.00 85 1014.4
20181023035832 14 26 4.8 8.0 0.00 0.00 0.00 85 1014.4
20181023035605 14 45 4.8 8.0 0.00 0.00 0.00 85 1014.4
20181023035331 14 39 6.4 8.0 0.00 0.00 0.00 86 1014.4
20181023035106 14 34 4.8 8.0 0.00 0.00 0.00 86 1014.3
20181023034832 14 54 4.8 8.0 0.00 0.00 0.00 87 1014.3
20181023034606 14 45 4.8 8.0 0.00 0.00 0.00 87 1014.3
20181023034331 14 33 6.4 8.0 0.00 0.00 0.00 87 1014.3
20181023034107 14 37 4.8 8.0 0.00 0.00 0.00 87 1014.3
20181023033830 14 22 4.8 8.0 0.00 0.00 0.00 88 1014.4
20181023033606 14 36 3.2 8.0 0.00 0.00 0.00 88 1014.4
20181023033332 14 330 3.2 8.0 0.00 0.00 0.00 89 1014.4
20181023033106 14 45 3.2 8.0 0.00 0.00 0.00 89 1014.4
20181023032831 14 31 4.8 8.0 0.00 0.00 0.00 89 1014.4
20181023032605 14 45 3.2 8.0 0.00 0.00 0.00 89 1014.4
20181023032331 14 45 4.8 8.0 0.00 0.00 0.00 89 1014.4
20181023032107 14 63 4.8 8.0 0.00 0.00 0.00 89 1014.4
20181023031831 14 55 4.8 8.0 0.00 0.00 0.00 89 1014.4
20181023031606 14 47 3.2 8.0 0.00 0.00 0.00 89 1014.4
20181023031331 14 22 1.6 8.0 0.00 0.00 0.00 89 1014.4
20181023031105 14 358 0.0 8.0 0.00 0.00 0.00 89 1014.4
20181023030831 14 301 0.0 8.0 0.00 0.00 0.00 89 1014.4
20181023030607 14 315 0.0 8.0 0.00 0.00 0.00 89 1014.4
20181023030332 14 11 0.0 8.0 0.00 0.00 0.00 89 1014.4
20181023030106 14 323 0.0 8.0 0.00 0.00 0.00 89 1014.4
20181023025832 14 317 0.0 8.0 0.00 0.00 0.00 89 1014.4
20181023025605 14 270 0.0 8.0 0.00 0.00 0.00 89 1014.4
20181023025332 14 270 0.0 8.0 0.00 0.00 0.00 89 1014.4
20181023025105 14 270 0.0 8.0 0.00 0.00 0.00 89 1014.4
20181023024832 14 270 0.0 8.0 0.00 0.00 0.00 89 1014.4
20181023024606 14 193 0.0 8.0 0.00 0.00 0.00 89 1014.4
20181023024331 14 279 0.0 8.0 0.00 0.00 0.00 89 1014.4
20181023024105 14 270 0.0 8.0 0.00 0.00 0.00 89 1014.4
20181023023831 14 336 0.0 8.0 0.00 0.00 0.00 89 1014.4
20181023023605 14 33 0.0 8.0 0.00 0.00 0.00 89 1014.4
20181023023332 15 54 0.0 8.0 0.00 0.00 0.00 89 1014.4
20181023023106 15 6 0.0 8.0 0.00 0.00 0.00 89 1014.4
20181023022831 15 243 0.0 8.0 0.00 0.00 0.00 89 1014.4
20181023022605 15 259 0.0 8.0 0.00 0.00 0.00 89 1014.4
20181023022330 15 270 1.6 8.0 0.00 0.00 0.00 89 1014.4
20181023022106 15 275 1.6 8.0 0.00 0.00 0.00 89 1014.4
20181023021830 15 309 1.6 8.0 0.00 0.00 0.00 89 1014.4
20181023021606 15 15 3.2 8.0 0.00 0.00 0.00 89 1014.4
20181023021330 15 329 3.2 8.0 0.00 0.00 0.00 89 1014.5
20181023021106 15 304 0.0 8.0 0.00 0.00 0.00 88 1014.5
20181023020830 15 295 3.2 8.0 0.00 0.00 0.00 88 1014.5
20181023020606 15 323 1.6 8.0 0.00 0.00 0.00 88 1014.5
20181023020330 15 356 0.0 8.0 0.00 0.00 0.00 88 1014.5
20181023020106 15 30 1.6 8.0 0.00 0.00 0.00 88 1014.5
20181023015831 15 11 0.0 8.0 0.00 0.00 0.00 88 1014.5
20181023015605 15 11 0.0 8.0 0.00 0.00 0.00 88 1014.5
20181023015331 15 32 0.0 8.0 0.00 0.00 0.00 88 1014.5
20181023015105 15 328 0.0 8.0 0.00 0.00 0.00 88 1014.5
20181023014830 15 112 0.0 8.0 0.00 0.00 0.00 88 1014.5
20181023014606 15 305 0.0 8.0 0.00 0.00 0.00 88 1014.5
20181023014331 15 292 0.0 8.0 0.00 0.00 0.00 88 1014.5
20181023014105 15 337 0.0 8.0 0.00 0.00 0.00 88 1014.5
20181023013830 15 317 0.0 8.0 0.00 0.00 0.00 88 1014.4
20181023013607 15 326 0.0 8.0 0.00 0.00 0.00 88 1014.4
20181023013330 15 338 0.0 8.0 0.00 0.00 0.00 88 1014.4
20181023013106 15 293 0.0 8.0 0.00 0.00 0.00 88 1014.4
20181023012830 15 308 0.0 8.0 0.00 0.00 0.00 88 1014.4
20181023012606 15 288 0.0 8.0 0.00 0.00 0.00 88 1014.4
20181023012330 15 277 0.0 8.0 0.00 0.00 0.00 88 1014.4
20181023012106 15 315 0.0 8.0 0.00 0.00 0.00 88 1014.4
20181023011830 15 309 0.0 8.0 0.00 0.00 0.00 88 1014.4
20181023011606 15 244 0.0 8.0 0.00 0.00 0.00 88 1014.4
20181023011331 15 11 0.0 8.0 0.00 0.00 0.00 88 1014.4
20181023011105 15 347 0.0 8.0 0.00 0.00 0.00 88 1014.4
20181023010831 15 140 0.0 8.0 0.00 0.00 0.00 88 1014.4
20181023010605 15 70 0.0 8.0 0.00 0.00 0.00 88 1014.4
20181023010330 15 85 0.0 8.0 0.00 0.00 0.00 88 1014.4
20181023010107 15 142 1.6 8.0 0.00 0.00 0.00 88 1014.4
20181023005831 15 58 0.0 8.0 0.00 0.00 0.00 88 1014.4
20181023005606 15 77 1.6 8.0 0.00 0.00 0.00 88 1014.4
20181023005331 15 332 0.0 8.0 0.00 0.00 0.00 88 1014.4
20181023005105 15 332 1.6 8.0 0.00 0.00 0.00 88 1014.4
20181023004830 15 0 1.6 8.0 0.00 0.00 0.00 88 1014.5
20181023004606 15 75 0.0 8.0 0.00 0.00 0.00 88 1014.5
20181023004331 15 86 0.0 8.0 0.00 0.00 0.00 88 1014.5
20181023004105 15 71 1.6 8.0 0.00 0.00 0.00 88 1014.5
20181023003830 15 25 3.2 8.0 0.00 0.00 0.00 88 1014.4
20181023003606 15 75 3.2 8.0 0.00 0.00 0.00 88 1014.4
20181023003330 15 39 6.4 8.0 0.00 0.00 0.00 88 1014.4
20181023003106 15 42 4.8 6.4 0.00 0.00 0.00 88 1014.4
20181023002830 15 45 6.4 6.4 0.00 0.00 0.00 88 1014.4
20181023002606 15 28 4.8 6.4 0.00 0.00 0.00 88 1014.5
20181023002330 15 42 3.2 4.8 0.00 0.00 0.00 87 1014.5
20181023002106 15 37 0.0 4.8 0.00 0.00 0.00 86 1014.5
20181023001830 15 17 0.0 4.8 0.00 0.00 0.00 86 1014.5
20181023001606 15 351 0.0 4.8 0.00 0.00 0.00 86 1014.5
20181023001331 15 344 0.0 4.8 0.00 0.00 0.00 86 1014.5
20181023001106 15 292 0.0 4.8 0.00 0.00 0.00 86 1014.5
20181023000831 15 270 0.0 4.8 0.00 0.00 0.00 86 1014.5
20181023000605 15 270 0.0 4.8 0.00 0.00 0.00 86 1014.5
20181023000330 15 282 0.0 4.8 0.00 0.00 0.00 85 1014.5
20181023000106 15 338 0.0 4.8 0.00 0.00 0.00 85 1014.5
20181022235831 15 334 0.0 4.8 0.00 0.00 0.00 85 1014.5
20181022235606 15 348 0.0 4.8 0.00 0.00 0.00 85 1014.5
20181022235330 15 261 0.0 4.8 0.00 0.00 0.00 85 1014.5
20181022235106 15 225 0.0 4.8 0.00 0.00 0.00 85 1014.5
20181022234830 15 239 0.0 4.8 0.00 0.00 0.00 85 1014.5
20181022234606 15 248 0.0 4.8 0.00 0.00 0.00 85 1014.5
20181022234330 15 316 0.0 4.8 0.00 0.00 0.00 85 1014.5
20181022234106 15 283 0.0 4.8 0.00 0.00 0.00 85 1014.5
20181022233830 16 31 1.6 4.8 0.00 0.00 0.00 85 1014.5
20181022233606 16 36 3.2 4.8 0.00 0.00 0.00 85 1014.5
20181022233330 16 358 3.2 4.8 0.00 0.00 0.00 85 1014.5
20181022233106 16 22 3.2 4.8 0.00 0.00 0.00 85 1014.5
20181022232830 16 22 3.2 4.8 0.00 0.00 0.00 85 1014.5
20181022232605 16 37 4.8 4.8 0.00 0.00 0.00 85 1014.7
20181022232331 16 22 3.2 4.8 0.00 0.00 0.00 84 1014.7
20181022232105 16 22 3.2 4.8 0.00 0.00 0.00 84 1014.7
20181022231830 16 24 3.2 3.2 0.00 0.00 0.00 84 1014.7
20181022231606 16 27 3.2 3.2 0.00 0.00 0.00 84 1014.7
20181022231329 16 22 0.0 3.2 0.00 0.00 0.00 83 1014.7
20181022231105 16 22 0.0 0.0 0.00 0.00 0.00 83 1014.7
20181022230830 16 22 0.0 0.0 0.00 0.00 0.00 83 1014.7
20181022230606 16 351 0.0 0.0 0.00 0.00 0.00 83 1014.7
20181022230330 16 315 0.0 0.0 0.00 0.00 0.00 82 1014.7
20181022230106 16 327 0.0 20.9 0.00 0.00 0.00 82 1014.7
20181022225829 16 315 0.0 20.9 0.00 0.00 0.00 82 1014.7
20181022225605 16 0 0.0 20.9 0.00 0.00 0.00 82 1014.7
20181022225330 16 1 0.0 20.9 0.00 0.00 0.00 81 1014.7
20181022225106 16 5 0.0 20.9 0.00 0.00 0.00 81 1014.7
20181022224830 16 45 0.0 20.9 0.00 0.00 0.00 81 1014.7
20181022224606 16 0 0.0 20.9 0.00 0.00 0.00 81 1014.7
20181022224330 17 355 0.0 20.9 0.00 0.00 0.00 81 1014.7
20181022224104 17 226 0.0 20.9 0.00 0.00 0.00 81 1014.7
20181022223830 17 228 0.0 20.9 0.00 0.00 0.00 81 1015.1
20181022223606 17 225 0.0 20.9 0.00 0.00 0.00 80 1015.1
20181022223330 17 235 0.0 20.9 0.00 0.00 0.00 80 1015.1
20181022223106 17 238 0.0 20.9 0.00 0.00 0.00 80 1015.1
20181022222829 17 215 0.0 20.9 0.00 0.00 0.00 79 1015.1
20181022222605 17 248 0.0 20.9 0.00 0.00 0.00 78 1015.0
20181022222331 17 241 0.0 20.9 0.00 0.00 0.00 78 1015.0
20181022222105 17 345 0.0 20.9 0.00 0.00 0.00 78 1015.0
20181022221830 17 0 0.0 20.9 0.00 0.00 0.00 77 1015.0
20181022221606 17 45 0.0 20.9 0.00 0.00 0.00 77 1015.0
20181022221329 17 248 0.0 20.9 0.00 0.00 0.00 77 1014.9
20181022221105 18 248 0.0 20.9 0.00 0.00 0.00 77 1014.9
20181022220829 18 248 0.0 20.9 0.00 0.00 0.00 77 1014.9
20181022220605 18 225 0.0 20.9 0.00 0.00 0.00 76 1014.9
20181022220330 18 206 3.2 20.9 0.00 0.00 0.00 76 1014.8
20181022220106 18 224 0.0 20.9 0.00 0.00 0.00 76 1014.7
20181022215829 18 47 1.6 20.9 0.00 0.00 0.00 76 1014.7
20181022215605 18 32 0.0 20.9 0.00 0.00 0.00 75 1014.7
20181022215330 18 34 3.2 20.9 0.00 0.00 0.00 75 1014.7
20181022215106 18 58 3.2 20.9 0.00 0.00 0.00 75 1014.6
20181022214830 18 33 3.2 20.9 0.00 0.00 0.00 75 1014.5
20181022214606 18 53 4.8 20.9 0.00 0.00 0.00 75 1014.5
20181022214332 18 33 3.2 20.9 0.00 0.00 0.00 75 1014.5
20181022214104 18 45 3.2 20.9 0.00 0.00 0.00 75 1014.5
20181022213831 19 45 4.8 20.9 0.00 0.00 0.00 74 1014.6
20181022213606 19 28 4.8 20.9 0.00 0.00 0.00 74 1014.6
20181022213330 19 41 3.2 20.9 0.00 0.00 0.00 74 1014.6
20181022213106 19 44 3.2 20.9 0.00 0.00 0.00 74 1014.6
20181022212830 19 36 3.2 20.9 0.00 0.00 0.00 73 1014.6
20181022212604 19 33 3.2 20.9 0.00 0.00 0.00 73 1014.5
20181022212330 19 45 4.8 20.9 0.00 0.00 0.00 73 1014.5
20181022212104 19 45 4.8 20.9 0.00 0.00 0.00 73 1014.5
20181022211830 20 50 6.4 20.9 0.00 0.00 0.00 73 1014.5
20181022211606 20 68 4.8 20.9 0.00 0.00 0.00 72 1014.5
20181022211330 20 35 4.8 20.9 0.00 0.00 0.00 72 1014.4
20181022211106 20 45 4.8 20.9 0.00 0.00 0.00 72 1014.4
20181022210830 20 45 4.8 20.9 0.00 0.00 0.00 72 1014.4
20181022210604 20 68 6.4 20.9 0.00 0.00 0.00 72 1014.4
20181022210330 20 68 8.0 20.9 0.00 0.00 0.00 72 1014.4
20181022210106 20 57 8.0 20.9 0.00 0.00 0.00 72 1014.3
20181022205829 20 54 8.0 20.9 0.00 0.00 0.00 72 1014.3
20181022205605 20 68 8.0 20.9 0.00 0.00 0.00 72 1014.3
20181022205329 20 80 8.0 20.9 0.00 0.00 0.00 72 1014.3
20181022205105 20 45 6.4 20.9 0.00 0.00 0.00 72 1014.4
20181022204830 20 45 6.4 20.9 0.00 0.00 0.00 71 1014.4
20181022204604 20 45 6.4 20.9 0.00 0.00 0.00 71 1014.4
20181022204329 20 56 6.4 20.9 0.00 0.00 0.00 71 1014.4
20181022204105 20 63 6.4 20.9 0.00 0.00 0.00 71 1014.4
20181022203830 20 68 6.4 20.9 0.00 0.00 0.00 71 1014.3
20181022203604 20 46 8.0 20.9 0.00 0.00 0.00 71 1014.3
20181022203330 20 54 9.7 20.9 0.00 0.00 0.00 71 1014.3
20181022203104 20 54 9.7 20.9 0.00 0.00 0.00 70 1014.3
20181022202830 20 68 8.0 20.9 0.00 0.00 0.00 70 1014.2
20181022202604 20 45 9.7 20.9 0.00 0.00 0.00 70 1014.2
20181022202330 20 32 9.7 20.9 0.00 0.00 0.00 70 1014.2
20181022202104 20 58 8.0 20.9 0.00 0.00 0.00 70 1014.2
20181022201830 20 58 9.7 20.9 0.00 0.00 0.00 70 1014.2
20181022201604 20 62 9.7 20.9 0.00 0.00 0.00 70 1014.2
20181022201329 20 54 8.0 20.9 0.00 0.00 0.00 70 1014.3
20181022201104 20 64 8.0 20.9 0.00 0.00 0.00 70 1014.3
20181022200830 20 50 9.7 20.9 0.00 0.00 0.00 70 1014.3
20181022200604 20 60 8.0 20.9 0.00 0.00 0.00 70 1014.3
20181022200330 20 60 6.4 20.9 0.00 0.00 0.00 70 1014.3
20181022200104 20 45 6.4 20.9 0.00 0.00 0.00 70 1014.2
20181022195829 20 34 6.4 20.9 0.00 0.00 0.00 70 1014.2
20181022195605 20 45 4.8 20.9 0.00 0.00 0.00 70 1014.2
20181022195329 20 58 4.8 20.9 0.00 0.00 0.00 70 1014.2
20181022195105 20 45 6.4 20.9 0.00 0.00 0.00 70 1014.2
20181022194829 20 60 6.4 20.9 0.00 0.00 0.00 70 1014.3
20181022194604 20 63 6.4 20.9 0.00 0.00 0.00 70 1014.3
20181022194329 21 68 8.0 20.9 0.00 0.00 0.00 70 1014.3
20181022194105 21 55 6.4 20.9 0.00 0.00 0.00 70 1014.3
20181022193829 21 69 8.0 20.9 0.00 0.00 0.00 70 1014.2
20181022193605 21 55 8.0 20.9 0.00 0.00 0.00 70 1014.2
20181022193329 21 68 9.7 20.9 0.00 0.00 0.00 70 1014.2
20181022193104 21 68 6.4 20.9 0.00 0.00 0.00 70 1014.2
20181022192829 21 45 8.0 20.9 0.00 0.00 0.00 70 1014.2
20181022192605 21 54 8.0 20.9 0.00 0.00 0.00 70 1014.0
20181022192329 21 81 8.0 20.9 0.00 0.00 0.00 70 1014.0
20181022192104 21 77 8.0 20.9 0.00 0.00 0.00 70 1014.0
20181022191830 21 60 8.0 20.9 0.00 0.00 0.00 70 1014.0
20181022191604 21 56 8.0 20.9 0.00 0.00 0.00 70 1014.0
20181022191329 21 45 8.0 20.9 0.00 0.00 0.00 70 1013.7
20181022191104 21 53 8.0 20.9 0.00 0.00 0.00 70 1013.7
20181022190830 21 45 8.0 20.9 0.00 0.00 0.00 70 1013.7
20181022190605 21 74 9.7 20.9 0.00 0.00 0.00 70 1013.7
20181022190330 21 45 8.0 20.9 0.00 0.00 0.00 70 1013.6
20181022190104 21 45 9.7 20.9 0.00 0.00 0.00 70 1013.6
20181022185829 21 68 9.7 20.9 0.00 0.00 0.00 70 1013.6
20181022185604 21 60 11.3 20.9 0.00 0.00 0.00 70 1013.6
20181022185330 21 54 9.7 20.9 0.00 0.00 0.00 70 1013.6
20181022185104 21 45 9.7 20.9 0.00 0.00 0.00 70 1013.5
20181022184831 21 31 8.0 20.9 0.00 0.00 0.00 70 1013.5
20181022184604 21 35 9.7 20.9 0.00 0.00 0.00 70 1013.5
20181022184330 21 59 8.0 20.9 0.00 0.00 0.00 70 1013.5
20181022184103 22 58 8.0 20.9 0.00 0.00 0.00 70 1013.5
20181022183829 22 64 9.7 20.9 0.00 0.00 0.00 70 1013.5
20181022183605 22 33 8.0 20.9 0.00 0.00 0.00 70 1013.5
20181022183329 22 22 8.0 20.9 0.00 0.00 0.00 70 1013.5
20181022183104 22 23 8.0 20.9 0.00 0.00 0.00 70 1013.5
20181022182829 22 55 6.4 20.9 0.00 0.00 0.00 69 1013.5
20181022182603 22 45 6.4 20.9 0.00 0.00 0.00 69 1013.3
20181022182329 22 22 6.4 20.9 0.00 0.00 0.00 68 1013.3
20181022182104 22 22 6.4 20.9 0.00 0.00 0.00 67 1013.3
20181022181830 22 45 6.4 20.9 0.00 0.00 0.00 67 1013.3
20181022181604 22 9 6.4 20.9 0.00 0.00 0.00 67 1013.3
20181022181329 22 22 6.4 20.9 0.00 0.00 0.00 66 1013.4
20181022181105 23 24 6.4 20.9 0.00 0.00 0.00 66 1013.4
20181022180828 23 22 3.2 20.9 0.00 0.00 0.00 66 1013.4
20181022180604 23 27 4.8 20.9 0.00 0.00 0.00 65 1013.4
20181022180328 23 9 4.8 20.9 0.00 0.00 0.00 65 1013.3
20181022180104 23 29 3.2 20.9 0.00 0.00 0.00 65 1013.2
20181022175830 23 49 3.2 20.9 0.00 0.00 0.00 64 1013.2
20181022175603 23 55 3.2 20.9 0.00 0.00 0.00 64 1013.2
20181022175329 23 45 3.2 20.9 0.00 0.00 0.00 64 1013.2
20181022175103 23 57 3.2 20.9 0.00 0.00 0.00 64 1013.2
20181022174829 23 22 3.2 20.9 0.00 0.00 0.00 64 1013.2
20181022174604 23 39 3.2 20.9 0.00 0.00 0.00 64 1013.2
20181022174329 23 68 4.8 20.9 0.00 0.00 0.00 63 1013.2
20181022174103 23 49 4.8 20.9 0.00 0.00 0.00 63 1013.2
20181022173829 23 61 6.4 20.9 0.00 0.00 0.00 63 1013.3
20181022173603 24 71 4.8 20.9 0.00 0.00 0.00 63 1013.3
20181022173329 24 87 4.8 20.9 0.00 0.00 0.00 63 1013.3
20181022173104 24 104 4.8 20.9 0.00 0.00 0.00 62 1013.3
20181022172829 24 94 4.8 20.9 0.00 0.00 0.00 62 1013.3
20181022172603 24 68 4.8 20.9 0.00 0.00 0.00 62 1013.5
20181022172329 24 71 6.4 20.9 0.00 0.00 0.00 62 1013.5
20181022172104 25 102 6.4 20.9 0.00 0.00 0.00 62 1013.5
20181022171848 24 77 8.0 20.9 0.00 0.00 0.00 61 1013.5
20181022171604 24 97 8.0 20.9 0.00 0.00 0.00 61 1013.5
20181022171330 24 63 8.0 20.9 0.00 0.00 0.00 61 1013.3
20181022171105 24 56 9.7 20.9 0.00 0.03 0.00 61 1013.3
20181022170828 24 45 8.0 20.9 0.00 0.03 0.00 61 1013.3
20181022170604 24 54 9.7 20.9 0.00 0.03 0.00 61 1013.3
20181022170328 24 56 8.0 20.9 0.00 0.05 0.00 61 1013.3
20181022170104 24 88 9.7 20.9 0.00 0.05 0.00 61 1013.3
20181022165829 24 78 8.0 20.9 0.00 0.05 0.00 61 1013.3
20181022165604 24 45 8.0 20.9 0.00 0.05 0.00 61 1013.3
20181022165328 24 63 4.8 20.9 0.00 0.05 0.00 61 1013.3
20181022165104 24 66 4.8 20.9 0.00 0.05 0.00 61 1013.3
20181022164828 24 75 4.8 20.9 0.00 0.05 0.00 61 1013.3
20181022164604 24 10 4.8 20.9 0.00 0.05 0.00 61 1013.3
20181022164329 24 52 6.4 20.9 0.00 0.05 0.00 61 1013.3
20181022164104 24 45 6.4 20.9 0.00 0.05 0.00 61 1013.3
20181022163829 24 1 6.4 20.9 0.00 0.05 0.00 61 1013.4
20181022163603 24 52 8.0 20.9 0.00 0.05 0.00 61 1013.4
20181022163329 24 56 8.0 20.9 0.00 0.05 0.00 61 1013.4
20181022163104 24 68 8.0 20.9 0.00 0.05 0.00 61 1013.4
20181022162830 24 45 6.4 20.9 0.00 0.05 0.00 61 1013.4
20181022162603 24 59 8.0 20.9 0.00 0.05 0.00 61 1013.4
20181022162329 24 32 9.7 20.9 0.00 0.05 0.00 61 1013.4
20181022162103 24 22 9.7 20.9 0.00 0.05 0.00 61 1013.4
20181022161829 24 22 9.7 20.9 0.00 0.05 0.00 61 1013.4
20181022161603 24 36 8.0 20.9 0.00 0.05 0.00 61 1013.4
20181022161328 24 36 8.0 20.9 0.00 0.05 0.00 60 1013.3
20181022161104 25 43 11.3 20.9 0.00 0.05 0.00 60 1013.3
20181022160829 25 68 9.7 20.9 0.00 0.05 0.00 60 1013.3
20181022160603 25 22 11.3 20.9 0.00 0.05 0.00 60 1013.3
20181022160329 25 348 9.7 20.9 0.00 0.05 0.00 59 1013.1
20181022160103 25 66 14.5 20.9 0.00 0.05 0.00 59 1013.1
20181022155828 25 347 16.1 19.3 0.00 0.05 0.00 59 1013.1
20181022155603 25 27 9.7 19.3 0.00 0.05 0.00 59 1013.1
20181022155328 25 15 9.7 19.3 0.00 0.05 0.00 58 1013.1
20181022155104 25 45 12.9 19.3 0.00 0.05 0.00 58 1013.2
20181022154828 25 346 14.5 19.3 0.00 0.05 0.00 58 1013.2
20181022154603 25 356 14.5 19.3 0.00 0.05 0.00 58 1013.2
20181022154328 26 13 16.1 19.3 0.00 0.05 0.00 58 1013.2
20181022154103 26 352 12.9 19.3 0.00 0.05 0.00 57 1013.2
20181022153828 27 31 9.7 16.1 0.00 0.05 0.00 52 1013.1
20181022153603 27 5 6.4 12.9 0.00 0.05 0.00 51 1013.1
20181022153329 27 346 6.4 12.9 0.00 0.05 0.00 51 1013.1
20181022153103 27 338 8.0 12.9 0.00 0.05 0.00 49 1013.1
20181022152829 27 270 8.0 12.9 0.00 0.05 0.00 50 1013.1
20181022152604 27 301 6.4 12.9 0.00 0.05 0.00 51 1013.1
20181022152327 27 330 3.2 12.9 0.00 0.05 0.00 51 1013.1
20181022152103 27 19 4.8 12.9 0.00 0.05 0.00 51 1013.1
20181022151829 27 331 4.8 12.9 0.00 0.05 0.00 51 1013.1
20181022151603 27 315 0.0 12.9 0.00 0.05 0.00 50 1013.1
20181022151329 27 288 1.6 12.9 0.00 0.05 0.00 50 1013.1
20181022151104 27 327 0.0 12.9 0.00 0.05 0.00 50 1013.1
20181022150827 27 328 0.0 12.9 0.00 0.05 0.00 50 1013.1
20181022150603 27 12 0.0 12.9 0.00 0.05 0.00 51 1013.1
20181022150329 27 18 4.8 12.9 0.00 0.05 0.00 51 1013.2
20181022150104 27 317 4.8 12.9 0.00 0.05 0.00 51 1013.2
20181022145828 27 357 4.8 12.9 0.00 0.05 0.00 50 1013.2
20181022145604 27 307 6.4 12.9 0.00 0.05 0.00 50 1013.2
20181022145328 27 255 4.8 12.9 0.00 0.05 0.00 49 1013.2
20181022145102 27 292 4.8 12.9 0.00 0.05 0.00 49 1013.2
20181022144828 27 263 3.2 12.9 0.00 0.05 0.00 48 1013.1
20181022144604 27 353 1.6 12.9 0.00 0.05 0.00 48 1013.1
20181022144329 27 260 4.8 12.9 0.00 0.05 0.00 49 1013.1
20181022144103 27 242 4.8 12.9 0.00 0.05 0.00 49 1013.1
20181022143828 27 260 6.4 12.9 0.00 0.05 0.00 48 1013.1
20181022143602 27 242 8.0 12.9 0.00 0.05 0.00 48 1013.1
20181022143328 27 332 1.6 12.9 0.00 0.05 0.00 49 1013.1
20181022143104 27 90 3.2 12.9 0.00 0.05 0.00 49 1013.1
20181022142828 27 29 3.2 12.9 0.00 0.05 0.00 49 1013.1
20181022142603 27 301 6.4 12.9 0.00 0.05 0.00 49 1013.3
20181022142329 27 293 6.4 12.9 0.00 0.05 0.00 49 1013.3
20181022142102 27 24 4.8 12.9 0.00 0.05 0.00 48 1013.3
20181022141828 27 83 8.0 12.9 0.00 0.05 0.00 48 1013.3
20181022141603 27 25 6.4 12.9 0.00 0.05 0.00 49 1013.2
20181022141329 27 357 4.8 12.9 0.00 0.05 0.00 49 1013.2
20181022141103 27 32 9.7 12.9 0.00 0.05 0.00 48 1013.2
20181022140828 27 325 4.8 12.9 0.00 0.05 0.00 49 1013.2
20181022140602 27 124 1.6 12.9 0.00 0.05 0.00 49 1013.2
20181022140328 27 34 3.2 12.9 0.00 0.05 0.00 49 1013.3
20181022140102 27 37 8.0 12.9 0.00 0.05 0.00 48 1013.3
20181022135828 27 37 4.8 12.9 0.00 0.05 0.00 49 1013.3
20181022135604 27 58 8.0 12.9 0.00 0.05 0.00 49 1013.3
20181022135327 27 291 6.4 12.9 0.00 0.05 0.00 50 1013.3
20181022135103 27 58 4.8 12.9 0.00 0.05 0.00 51 1013.6
20181022134828 27 287 4.8 12.9 0.00 0.05 0.00 51 1013.6
20181022134603 26 309 4.8 12.9 0.00 0.05 0.00 51 1013.6
20181022134328 26 318 4.8 12.9 0.00 0.05 0.00 52 1013.6
20181022134104 26 22 4.8 12.9 0.00 0.05 0.00 52 1013.6
20181022133828 26 41 6.4 12.9 0.00 0.05 0.00 52 1013.7
20181022133602 26 19 3.2 12.9 0.00 0.05 0.00 52 1013.7
20181022133327 26 12 8.0 12.9 0.00 0.05 0.00 53 1013.7
20181022133103 26 0 8.0 12.9 0.00 0.05 0.00 53 1013.7
20181022132829 25 17 4.8 12.9 0.00 0.05 0.00 53 1013.7
20181022132603 25 315 4.8 12.9 0.00 0.05 0.00 53 1013.7
20181022132328 25 34 6.4 12.9 0.00 0.05 0.00 53 1013.6
20181022132103 25 11 8.0 12.9 0.00 0.05 0.00 54 1013.6
20181022131829 25 27 4.8 12.9 0.00 0.05 0.00 54 1013.6
20181022131607 25 43 4.8 12.9 0.00 0.05 0.00 54 1013.7
20181022131327 25 29 6.4 12.9 0.00 0.05 0.00 54 1013.8
20181022131104 25 33 8.0 12.9 0.00 0.05 0.00 54 1013.8
20181022130828 25 55 9.7 12.9 0.00 0.05 0.00 54 1013.8
20181022130605 25 40 4.8 12.9 0.00 0.05 0.00 54 1013.8
20181022130338 25 68 6.4 12.9 0.00 0.05 0.00 54 1013.8
20181022130002 25 6 8.0 12.9 0.00 0.05 0.00 54 1013.8
20181022125709 25 27 6.4 12.9 0.00 0.05 0.00 55 1013.8
20181022125351 25 260 1.6 12.9 0.00 0.05 0.00 55 1013.8
20181022124915 25 315 8.0 12.9 0.00 0.05 0.00 55 1013.8
20181022124347 25 301 8.0 12.9 0.00 0.05 0.00 55 1013.8
20181022123720 25 278 6.4 12.9 0.00 0.05 0.00 56 1014.1
20181022122328 25 351 6.4 12.9 0.00 0.05 0.00 56 1014.1
20181022122102 25 8 4.8 12.9 0.00 0.05 0.00 55 1014.1
20181022121828 25 0 8.0 12.9 0.00 0.05 0.00 54 1014.1
20181022121602 25 306 4.8 12.9 0.00 0.05 0.00 54 1014.1
20181022121328 25 332 6.4 12.9 0.00 0.05 0.00 54 1014.5
20181022121103 25 39 6.4 12.9 0.00 0.05 0.00 55 1014.5
20181022120827 25 356 6.4 12.9 0.00 0.05 0.00 56 1014.5
20181022120603 25 309 6.4 12.9 0.00 0.05 0.00 56 1014.5
20181022120328 25 340 8.0 12.9 0.00 0.05 0.00 56 1014.6
20181022120103 25 349 4.8 12.9 0.00 0.05 0.00 56 1014.6
20181022115828 25 326 6.4 12.9 0.00 0.05 0.00 57 1014.6
20181022115603 25 315 8.0 12.9 0.00 0.05 0.00 58 1014.6
20181022115335 25 34 6.4 12.9 0.00 0.05 0.00 58 1014.6
20181022115102 25 350 4.8 12.9 0.00 0.05 0.00 57 1014.6
20181022114828 25 40 6.4 12.9 0.00 0.05 0.00 60 1014.7
20181022114602 25 12 6.4 12.9 0.00 0.05 0.00 60 1014.7
20181022114328 24 26 8.0 12.9 0.00 0.05 0.00 60 1014.7
20181022114102 24 41 8.0 12.9 0.00 0.05 0.00 60 1014.7
20181022113828 24 2 6.4 12.9 0.00 0.05 0.00 62 1014.7
20181022113601 24 22 6.4 12.9 0.00 0.05 0.00 62 1014.7
20181022113327 24 348 6.4 12.9 0.00 0.05 0.00 62 1014.7
20181022113103 24 0 8.0 12.9 0.00 0.05 0.00 62 1014.7
20181022112828 24 0 8.0 12.9 0.00 0.05 0.00 63 1014.7
20181022112602 23 7 8.0 12.9 0.00 0.05 0.00 64 1015.0
20181022112328 23 33 6.4 12.9 0.00 0.05 0.00 65 1015.0
20181022112103 23 20 8.0 12.9 0.00 0.05 0.00 65 1015.0
20181022111826 23 4 6.4 12.9 0.00 0.05 0.00 66 1015.0
20181022111602 23 11 8.0 12.9 0.00 0.05 0.00 66 1015.0
20181022111328 23 328 8.0 12.9 0.00 0.05 0.00 67 1015.0
20181022111102 23 359 8.0 12.9 0.00 0.05 0.00 67 1015.0
20181022110828 23 18 6.4 12.9 0.00 0.05 0.00 67 1015.0
20181022110601 23 10 8.0 12.9 0.00 0.05 0.00 68 1015.0
20181022110327 22 352 8.0 12.9 0.00 0.05 0.00 68 1015.0
20181022110103 22 348 8.0 12.9 0.00 0.05 0.00 68 1015.0
20181022105827 22 22 9.7 12.9 0.00 0.05 0.00 68 1015.0
20181022105602 22 347 8.0 12.9 0.00 0.05 0.00 68 1015.0
20181022105327 22 18 6.4 12.9 0.00 0.05 0.00 69 1015.0
20181022105102 22 41 8.0 12.9 0.00 0.05 0.00 69 1015.1
20181022104827 22 29 6.4 12.9 0.00 0.05 0.00 69 1015.1
20181022104604 22 47 6.4 12.9 0.00 0.05 0.00 69 1015.1
20181022104328 22 356 8.0 12.9 0.00 0.05 0.00 69 1015.1
20181022104103 22 55 8.0 12.9 0.00 0.05 0.00 69 1015.1
20181022103826 22 329 8.0 12.9 0.00 0.05 0.00 69 1015.2
20181022103603 22 33 8.0 12.9 0.00 0.05 0.00 70 1015.3
20181022103326 22 77 8.0 12.9 0.00 0.05 0.00 70 1015.3
20181022103103 21 35 8.0 12.9 0.00 0.05 0.00 71 1015.3
20181022102828 21 55 8.0 12.9 0.00 0.05 0.00 71 1015.3
20181022102602 21 29 9.7 12.9 0.00 0.05 0.00 71 1015.3
20181022102329 21 37 8.0 12.9 0.00 0.05 0.00 72 1015.3
20181022102101 21 41 11.3 12.9 0.00 0.05 0.00 73 1015.3
20181022101828 21 15 8.0 11.3 0.00 0.05 0.00 73 1015.3
20181022101602 21 29 8.0 11.3 0.00 0.05 0.00 73 1015.3
20181022101328 20 41 8.0 11.3 0.00 0.05 0.00 74 1015.4
20181022101102 20 351 9.7 11.3 0.00 0.05 0.00 74 1015.4
20181022100827 20 58 8.0 11.3 0.00 0.05 0.00 74 1015.4
20181022100601 20 22 8.0 11.3 0.00 0.05 0.00 74 1015.4
20181022100327 20 40 9.7 11.3 0.00 0.05 0.00 75 1015.5